{"data":{"norad_id":62009,"epoch":"2026-05-25T01:03:12.667968Z","epoch_age_seconds":78399,"freshness":"FRESH","line1":"1 62009U 24213B   26145.04389662  .00151748  00000+0  12332-2 0  9993","line2":"2 62009  53.1574  25.1473 0001386  62.5243 297.5915 15.69738365 86900","mean_motion":15.69738365,"eccentricity":0.0001386,"inclination_deg":53.1574,"raan_deg":25.1473,"arg_perigee_deg":62.5243,"mean_anomaly_deg":297.5915,"bstar":0.0012332,"rev_number":8690,"period_min":91.735032544739,"perigee_km":358.71172520376,"apogee_km":360.57943853545,"semimajor_km":6737.7825818696,"source":"CELESTRAK","updated_at":"2026-05-25T13:38:19.518388Z"}}